{"data":{"norad_id":52989,"intl_designator":"2022-076D","name":"STARLINK-4293","alt_names":[],"object_type":"PAYLOAD","status":"ACTIVE","operator":null,"country":"US","launch_date":"2022-07-07","launch_site_code":"AFETR","launch_vehicle":null,"mission":null,"orbit_class":"UNKNOWN","rcs_meters":null,"size_class":null,"mass_kg":null,"dimensions":null,"purposes":["comms"],"wikipedia_slug":null,"has_3d_model":false,"image_url":null,"decayed_at":null,"tle_current":{"epoch":"2026-09-20T03:13:01.123392Z","epoch_age_seconds":100599,"freshness":"FRESH","line1":"1 52989U 22076D   26263.13404078  .00427304  90190-4  78520-3 0  9994","line2":"2 52989  53.2108 260.4984 0002155  53.5535 306.5695 16.00743477232770","mean_motion":16.00743477,"eccentricity":0.0002155,"inclination_deg":53.2108,"raan_deg":260.4984,"arg_perigee_deg":53.5535,"mean_anomaly_deg":306.5695,"bstar":0.0007852,"rev_number":23277,"period_min":89.958198842624,"perigee_km":270.92547463457,"apogee_km":273.7918382625,"semimajor_km":6650.4956564485,"source":"CELESTRAK","updated_at":"2026-09-20T09:00:40.139177Z"}}}